Radiation Dose at Monitoring Post of Fukushima Daini Nuclear Power Station
Date,Time,MP-1(microSv/h),MP-2(microSv/h),MP-3(microSv/h),MP-4(microSv/h),MP-5(microSv/h),MP-6(microSv/h),MP-7(microSv/h),Wind Direction,Wind Velocity(m/s),Rain
2024/02/23,00:00,0.142,0.127,0.199,0.186,0.197,0.112,0.074,north-northwest,4.0,No
2024/02/23,00:10,0.142,0.127,0.199,0.185,0.196,0.112,0.074,north-northwest,4.4,No
2024/02/23,00:20,0.142,0.127,0.198,0.187,0.196,0.113,0.074,north-northwest,3.9,No
2024/02/23,00:30,0.142,0.127,0.199,0.186,0.197,0.113,0.074,north-northwest,3.7,No
2024/02/23,00:40,0.141,0.126,0.197,0.185,0.197,0.113,0.074,north-northwest,3.9,No
2024/02/23,00:50,0.141,0.127,0.200,0.185,0.196,0.113,0.075,north-northwest,4.2,No
2024/02/23,01:00,0.142,0.127,0.198,0.185,0.197,0.113,0.074,north-northwest,5.6,No
2024/02/23,01:10,0.141,0.127,0.198,0.186,0.197,0.113,0.074,north-northwest,5.7,No
2024/02/23,01:20,0.142,0.128,0.199,0.186,0.196,0.114,0.074,north-northwest,5.5,No
2024/02/23,01:30,0.142,0.127,0.199,0.186,0.197,0.113,0.074,north-northwest,5.8,No
2024/02/23,01:40,0.141,0.127,0.200,0.186,0.197,0.113,0.074,north-northwest,6.1,No
2024/02/23,01:50,0.141,0.127,0.199,0.187,0.197,0.113,0.074,north-northwest,5.7,No
2024/02/23,02:00,0.142,0.127,0.199,0.187,0.197,0.113,0.075,north-northwest,5.7,No
2024/02/23,02:10,0.142,0.128,0.200,0.186,0.198,0.113,0.075,north-northwest,5.4,No
2024/02/23,02:20,0.142,0.129,0.200,0.187,0.196,0.113,0.075,north-northwest,5.6,No
2024/02/23,02:30,0.142,0.128,0.200,0.187,0.197,0.114,0.075,north-northwest,5.5,No
2024/02/23,02:40,0.142,0.127,0.200,0.186,0.198,0.113,0.074,north-northwest,5.1,No
2024/02/23,02:50,0.142,0.126,0.199,0.187,0.198,0.113,0.075,northwest,5.4,No
2024/02/23,03:00,0.142,0.128,0.199,0.187,0.198,0.114,0.076,northwest,5.8,No
2024/02/23,03:10,0.142,0.127,0.198,0.185,0.198,0.113,0.075,north-northwest,5.7,No
2024/02/23,03:20,0.141,0.127,0.199,0.187,0.197,0.113,0.074,northwest,6.1,No
2024/02/23,03:30,0.142,0.128,0.199,0.187,0.197,0.113,0.074,northwest,5.6,No
2024/02/23,03:40,0.142,0.127,0.200,0.187,0.197,0.113,0.074,northwest,5.4,No
2024/02/23,03:50,0.141,0.128,0.200,0.187,0.197,0.113,0.075,northwest,6.1,No
2024/02/23,04:00,0.141,0.128,0.199,0.186,0.198,0.113,0.074,northwest,5.7,No
2024/02/23,04:10,0.143,0.127,0.200,0.185,0.197,0.112,0.074,northwest,5.1,No
2024/02/23,04:20,0.142,0.128,0.199,0.186,0.198,0.113,0.075,northwest,6.2,No
2024/02/23,04:30,0.141,0.128,0.200,0.187,0.197,0.114,0.074,northwest,6.0,No
2024/02/23,04:40,0.142,0.128,0.199,0.186,0.197,0.112,0.074,north-northwest,6.4,No
2024/02/23,04:50,0.142,0.128,0.200,0.186,0.198,0.113,0.075,north-northwest,6.3,No
2024/02/23,05:00,0.143,0.127,0.199,0.187,0.198,0.114,0.075,north-northwest,6.1,No
2024/02/23,05:10,0.143,0.128,0.200,0.186,0.197,0.113,0.074,north-northwest,6.6,No
2024/02/23,05:20,0.142,0.127,0.200,0.187,0.198,0.113,0.075,north-northwest,6.2,No
2024/02/23,05:30,0.142,0.127,0.200,0.187,0.198,0.113,0.075,north-northwest,6.4,No
2024/02/23,05:40,0.142,0.128,0.200,0.186,0.198,0.113,0.074,north-northwest,6.0,No
2024/02/23,05:50,0.142,0.128,0.201,0.187,0.198,0.113,0.074,northwest,6.7,No
2024/02/23,06:00,0.142,0.127,0.200,0.187,0.198,0.113,0.075,northwest,6.7,No
2024/02/23,06:10,0.143,0.127,0.200,0.187,0.198,0.113,0.075,north-northwest,7.0,No
2024/02/23,06:20,0.143,0.128,0.200,0.187,0.198,0.113,0.074,northwest,7.1,No
2024/02/23,06:30,0.143,0.128,0.200,0.188,0.198,0.114,0.075,north-northwest,7.0,No
2024/02/23,06:40,0.143,0.128,0.201,0.187,0.199,0.113,0.074,northwest,7.1,No
2024/02/23,06:50,0.142,0.128,0.199,0.187,0.198,0.113,0.075,northwest,6.8,No
2024/02/23,07:00,0.141,0.127,0.200,0.187,0.198,0.114,0.074,northwest,7.3,No
2024/02/23,07:10,0.142,0.127,0.200,0.187,0.198,0.113,0.074,northwest,6.8,No
2024/02/23,07:20,0.142,0.127,0.200,0.186,0.198,0.113,0.074,northwest,6.7,No
2024/02/23,07:30,0.142,0.128,0.200,0.187,0.198,0.113,0.074,north-northwest,7.1,No
2024/02/23,07:40,0.143,0.127,0.200,0.188,0.199,0.113,0.074,northwest,6.6,No
2024/02/23,07:50,0.143,0.128,0.200,0.188,0.199,0.114,0.075,northwest,6.4,No
2024/02/23,08:00,0.142,0.127,0.200,0.187,0.198,0.113,0.074,north-northwest,5.8,No
2024/02/23,08:10,0.141,0.127,0.201,0.187,0.199,0.113,0.074,northwest,5.2,No
2024/02/23,08:20,0.143,0.127,0.200,0.187,0.199,0.113,0.074,north-northwest,5.2,No
2024/02/23,08:30,0.143,0.128,0.201,0.187,0.198,0.114,0.074,north-northwest,5.8,No
2024/02/23,08:40,0.142,0.128,0.200,0.187,0.199,0.113,0.074,northwest,5.3,No
2024/02/23,08:50,0.142,0.128,0.200,0.188,0.199,0.114,0.074,northwest,4.9,No
2024/02/23,09:00,0.142,0.127,0.200,0.188,0.200,0.114,0.076,northwest,4.5,No
2024/02/23,09:10,0.142,0.127,0.201,0.188,0.198,0.113,0.075,northwest,3.6,No
2024/02/23,09:20,0.143,0.128,0.201,0.188,0.199,0.114,0.075,west-northwest,3.5,No
2024/02/23,09:30,0.142,0.128,0.200,0.187,0.199,0.114,0.075,northwest,5.2,No
2024/02/23,09:40,0.141,0.128,0.201,0.188,0.199,0.114,0.075,northwest,4.3,No
2024/02/23,09:50,0.143,0.128,0.201,0.188,0.199,0.114,0.074,northwest,4.3,No
2024/02/23,10:00,0.143,0.128,0.202,0.187,0.200,0.114,0.075,north-northwest,4.2,No
2024/02/23,10:10,0.143,0.128,0.200,0.189,0.201,0.113,0.075,north-northwest,4.0,No
2024/02/23,10:20,0.142,0.128,0.201,0.189,0.199,0.115,0.075,northwest,5.0,No
2024/02/23,10:30,0.142,0.128,0.201,0.188,0.199,0.114,0.075,north-northwest,4.7,No
2024/02/23,10:40,0.143,0.128,0.201,0.188,0.199,0.114,0.075,north-northwest,5.3,No
2024/02/23,10:50,0.143,0.129,0.200,0.188,0.199,0.114,0.074,north-northwest,5.9,Yes
2024/02/23,11:00,0.143,0.129,0.202,0.190,0.201,0.115,0.075,north-northwest,5.1,Yes
2024/02/23,11:10,0.144,0.129,0.203,0.190,0.201,0.116,0.076,north-northwest,5.9,Yes
2024/02/23,11:20,0.145,0.131,0.203,0.190,0.202,0.116,0.077,north-northwest,5.0,Yes
2024/02/23,11:30,0.146,0.130,0.204,0.191,0.203,0.116,0.077,northwest,4.6,Yes
2024/02/23,11:40,0.144,0.130,0.203,0.190,0.202,0.117,0.077,north-northwest,4.1,No
2024/02/23,11:50,0.145,0.130,0.203,0.192,0.202,0.115,0.077,northwest,3.9,No
2024/02/23,12:00,0.144,0.129,0.203,0.191,0.202,0.115,0.075,northwest,3.6,No
2024/02/23,12:10,0.145,0.129,0.204,0.191,0.202,0.115,0.076,north-northwest,4.1,Yes
2024/02/23,12:20,0.145,0.128,0.203,0.191,0.202,0.115,0.076,north-northwest,4.7,Yes
2024/02/23,12:30,0.144,0.129,0.204,0.191,0.202,0.114,0.076,north-northwest,5.0,Yes
2024/02/23,12:40,0.144,0.129,0.203,0.190,0.202,0.116,0.075,north-northwest,5.8,Yes
2024/02/23,12:50,0.146,0.130,0.204,0.192,0.203,0.116,0.076,north-northwest,5.5,Yes
2024/02/23,13:00,0.145,0.130,0.205,0.192,0.203,0.116,0.078,north-northwest,4.7,Yes
2024/02/23,13:10,0.147,0.131,0.205,0.193,0.203,0.116,0.077,north,4.6,Yes
2024/02/23,13:20,0.145,0.131,0.206,0.194,0.204,0.118,0.078,north-northwest,5.2,Yes
2024/02/23,13:30,0.146,0.131,0.205,0.194,0.205,0.118,0.078,north-northwest,4.3,Yes
2024/02/23,13:40,0.146,0.131,0.205,0.194,0.204,0.118,0.078,north-northwest,4.0,Yes
2024/02/23,13:50,0.145,0.131,0.205,0.192,0.203,0.117,0.077,north-northwest,4.8,No
2024/02/23,14:00,0.145,0.130,0.203,0.193,0.204,0.117,0.077,north-northwest,4.9,No
2024/02/23,14:10,0.145,0.130,0.205,0.192,0.203,0.115,0.077,north-northwest,3.9,No
2024/02/23,14:20,0.144,0.130,0.204,0.191,0.201,0.116,0.076,north-northwest,3.7,No
2024/02/23,14:30,0.143,0.130,0.203,0.191,0.202,0.116,0.075,north-northwest,3.9,No
2024/02/23,14:40,0.144,0.129,0.203,0.191,0.203,0.115,0.076,northwest,4.8,No
2024/02/23,14:50,0.144,0.129,0.204,0.192,0.203,0.115,0.076,north-northwest,4.5,No
2024/02/23,15:00,0.143,0.128,0.202,0.191,0.203,0.116,0.075,north-northwest,5.2,No
2024/02/23,15:10,0.143,0.128,0.203,0.190,0.202,0.115,0.075,north-northwest,4.7,No
2024/02/23,15:20,0.143,0.129,0.203,0.191,0.203,0.115,0.075,north-northwest,4.9,No
2024/02/23,15:30,0.143,0.128,0.202,0.191,0.203,0.115,0.076,north-northwest,6.1,No
2024/02/23,15:40,0.143,0.128,0.202,0.191,0.203,0.115,0.075,north-northwest,5.0,No
2024/02/23,15:50,0.143,0.128,0.202,0.191,0.203,0.115,0.075,north-northwest,5.6,No
2024/02/23,16:00,0.143,0.128,0.203,0.191,0.203,0.115,0.075,north-northwest,4.5,No
2024/02/23,16:10,0.143,0.128,0.202,0.191,0.203,0.114,0.075,north-northwest,5.7,No
2024/02/23,16:20,0.143,0.129,0.203,0.190,0.203,0.114,0.075,north-northwest,4.8,No
2024/02/23,16:30,0.144,0.127,0.203,0.192,0.202,0.114,0.074,north-northwest,5.3,No
2024/02/23,16:40,0.143,0.129,0.203,0.192,0.202,0.115,0.074,north-northwest,4.9,No
2024/02/23,16:50,0.143,0.129,0.202,0.192,0.203,0.115,0.074,north-northwest,4.7,No
2024/02/23,17:00,0.143,0.128,0.203,0.191,0.203,0.114,0.075,north-northwest,4.9,No
2024/02/23,17:10,0.144,0.129,0.203,0.191,0.203,0.114,0.075,north-northwest,5.3,No
2024/02/23,17:20,0.144,0.128,0.202,0.193,0.203,0.114,0.075,north-northwest,5.8,No
2024/02/23,17:30,0.143,0.128,0.202,0.192,0.203,0.114,0.075,north-northwest,5.2,No
2024/02/23,17:40,0.143,0.128,0.203,0.192,0.203,0.115,0.074,north-northwest,5.5,No
2024/02/23,17:50,0.143,0.128,0.204,0.192,0.204,0.115,0.075,north-northwest,5.3,No
2024/02/23,18:00,0.144,0.128,0.203,0.191,0.203,0.115,0.075,north-northwest,5.2,No
2024/02/23,18:10,0.143,0.128,0.203,0.193,0.203,0.115,0.075,north-northwest,6.2,No
2024/02/23,18:20,0.144,0.129,0.203,0.191,0.203,0.115,0.074,north-northwest,6.0,No
2024/02/23,18:30,0.144,0.129,0.204,0.192,0.202,0.115,0.075,north-northwest,6.4,No
2024/02/23,18:40,0.144,0.129,0.203,0.191,0.203,0.114,0.075,north-northwest,6.5,No
2024/02/23,18:50,0.144,0.128,0.203,0.191,0.202,0.114,0.074,north-northwest,6.2,No
2024/02/23,19:00,0.144,0.128,0.203,0.192,0.203,0.115,0.075,north-northwest,6.0,No
2024/02/23,19:10,0.143,0.129,0.204,0.191,0.203,0.115,0.074,north-northwest,6.2,No
2024/02/23,19:20,0.143,0.129,0.204,0.192,0.203,0.114,0.075,north-northwest,6.3,No
2024/02/23,19:30,0.143,0.128,0.204,0.191,0.202,0.115,0.074,north-northwest,6.6,No
2024/02/23,19:40,0.144,0.129,0.204,0.191,0.204,0.115,0.075,northwest,6.9,No
2024/02/23,19:50,0.143,0.129,0.203,0.192,0.203,0.115,0.075,north-northwest,7.0,No
2024/02/23,20:00,0.143,0.128,0.203,0.193,0.201,0.114,0.075,north-northwest,6.4,No
2024/02/23,20:10,0.143,0.129,0.204,0.193,0.202,0.114,0.074,north-northwest,6.1,No
2024/02/23,20:20,0.145,0.129,0.203,0.192,0.203,0.116,0.075,north-northwest,5.2,No
2024/02/23,20:30,0.144,0.129,0.203,0.192,0.204,0.115,0.075,north-northwest,6.4,No
2024/02/23,20:40,0.145,0.129,0.204,0.192,0.203,0.114,0.076,north-northwest,5.6,No
2024/02/23,20:50,0.143,0.129,0.204,0.191,0.202,0.114,0.074,northwest,5.4,No
2024/02/23,21:00,0.144,0.129,0.204,0.193,0.202,0.114,0.075,north-northwest,5.9,No
2024/02/23,21:10,0.144,0.129,0.205,0.192,0.203,0.116,0.075,northwest,6.1,No
2024/02/23,21:20,0.144,0.130,0.203,0.191,0.203,0.115,0.075,northwest,5.5,No
2024/02/23,21:30,0.145,0.129,0.203,0.192,0.204,0.115,0.076,northwest,3.8,No
2024/02/23,21:40,0.144,0.129,0.203,0.192,0.204,0.115,0.075,north-northwest,5.2,No
2024/02/23,21:50,0.144,0.129,0.205,0.193,0.204,0.115,0.075,northwest,5.7,No
2024/02/23,22:00,0.144,0.130,0.205,0.193,0.203,0.114,0.074,north-northwest,7.0,No
2024/02/23,22:10,0.145,0.129,0.204,0.193,0.204,0.114,0.075,north-northwest,6.7,No
2024/02/23,22:20,0.145,0.129,0.205,0.192,0.202,0.115,0.075,north-northwest,6.7,No
2024/02/23,22:30,0.145,0.129,0.204,0.192,0.202,0.115,0.075,northwest,6.6,No
2024/02/23,22:40,0.144,0.129,0.204,0.191,0.203,0.115,0.075,northwest,6.0,No
2024/02/23,22:50,0.145,0.128,0.204,0.192,0.203,0.115,0.075,northwest,5.8,No
2024/02/23,23:00,0.144,0.129,0.203,0.192,0.202,0.114,0.075,north-northwest,5.2,No
2024/02/23,23:10,0.144,0.129,0.203,0.193,0.203,0.114,0.075,northwest,5.0,No
2024/02/23,23:20,0.143,0.129,0.205,0.192,0.203,0.115,0.075,north-northwest,7.3,No
2024/02/23,23:30,0.144,0.129,0.203,0.192,0.202,0.115,0.075,north-northwest,6.6,No
2024/02/23,23:40,0.145,0.128,0.204,0.192,0.202,0.114,0.075,north-northwest,6.4,No
2024/02/23,23:50,0.145,0.129,0.203,0.192,0.202,0.115,0.076,north-northwest,5.3,No
